,,,PA_Meas_PMT16A,,PR_Meas_QMR101_102,,RH_Meas_QMH101,,SR_Meas_QMS101,,TA_Meas_QMH101,,GenWind,,GenWind,
date,time,status,PA,status,PR,status,RH,status,SR,status,TA,status,DirAvg,status,SpdAvg,
2010-03-07, 00:00:04,VALID,1012.63,VALID,0,VALID,100.698,VALID,0,VALID,24.4132,VALID,328,VALID,0,
2010-03-07, 00:01:04,VALID,1012.6,VALID,0,VALID,100.698,VALID,0,VALID,24.4345,VALID,328,VALID,0,
2010-03-07, 00:02:04,VALID,1012.57,VALID,0,VALID,100.706,VALID,0,VALID,24.415,VALID,328,VALID,0,
2010-03-07, 00:03:04,VALID,1012.52,VALID,0,VALID,100.713,VALID,0,VALID,24.415,VALID,328,VALID,0,
2010-03-07, 00:04:04,VALID,1012.51,VALID,0,VALID,100.721,VALID,0,VALID,24.415,VALID,328,VALID,0,
2010-03-07, 00:05:04,VALID,1012.45,VALID,0,VALID,100.736,VALID,0,VALID,24.3956,VALID,328,VALID,0,
2010-03-07, 00:06:04,VALID,1012.41,VALID,0,VALID,100.744,VALID,0,VALID,24.415,VALID,328,VALID,0,
2010-03-07, 00:07:04,VALID,1012.39,VALID,0,VALID,100.736,VALID,0,VALID,24.4132,VALID,328,VALID,0,
2010-03-07, 00:08:04,VALID,1012.37,VALID,0,VALID,100.721,VALID,0,VALID,24.454,VALID,328,VALID,0,
2010-03-07, 00:09:04,VALID,1012.33,VALID,0,VALID,100.744,VALID,0,VALID,24.454,VALID,328,VALID,0,
2010-03-07, 00:10:04,VALID,1012.3,VALID,0,VALID,100.744,VALID,0,VALID,24.4735,VALID,328,VALID,0,
2010-03-07, 00:11:04,VALID,1012.29,VALID,0,VALID,100.759,VALID,0,VALID,24.4522,VALID,328,VALID,0,
2010-03-07, 00:12:04,VALID,1012.27,VALID,0,VALID,100.744,VALID,0,VALID,24.4522,VALID,328,VALID,0,
2010-03-07, 00:13:04,VALID,1012.28,VALID,0,VALID,100.774,VALID,0,VALID,24.454,VALID,328,VALID,0.139844,
2010-03-07, 00:14:04,VALID,1012.24,VALID,0,VALID,100.767,VALID,0,VALID,24.454,VALID,328,VALID,0.129297,
2010-03-07, 00:15:04,VALID,1012.26,VALID,0,VALID,100.744,VALID,0,VALID,24.454,VALID,328,VALID,0.143359,
2010-03-07, 00:16:04,VALID,1012.25,VALID,0,VALID,100.759,VALID,0,VALID,24.4327,VALID,328,VALID,0,
2010-03-07, 00:17:04,VALID,1012.26,VALID,0,VALID,100.736,VALID,0,VALID,24.4327,VALID,328,VALID,0,
2010-03-07, 00:18:04,VALID,1012.22,VALID,0,VALID,100.721,VALID,0,VALID,24.454,VALID,328,VALID,0,
2010-03-07, 00:19:04,VALID,1012.22,VALID,0,VALID,100.736,VALID,0,VALID,24.454,VALID,328,VALID,0,
2010-03-07, 00:20:04,VALID,1012.19,VALID,0,VALID,100.713,VALID,0,VALID,24.4327,VALID,328,VALID,0,
2010-03-07, 00:21:04,VALID,1012.19,VALID,0,VALID,100.721,VALID,0,VALID,24.454,VALID,328,VALID,0,
2010-03-07, 00:22:04,VALID,1012.18,VALID,0,VALID,100.721,VALID,0,VALID,24.4735,VALID,328,VALID,0,
2010-03-07, 00:23:04,VALID,1012.15,VALID,0,VALID,100.729,VALID,0,VALID,24.4522,VALID,328,VALID,0,
2010-03-07, 00:24:04,VALID,1012.15,VALID,0,VALID,100.744,VALID,0,VALID,24.4522,VALID,328,VALID,0,
2010-03-07, 00:25:04,VALID,1012.1,VALID,0,VALID,100.729,VALID,0,VALID,24.493,VALID,328,VALID,0,
2010-03-07, 00:26:04,VALID,1012.11,VALID,0,VALID,100.736,VALID,0,VALID,24.5125,VALID,328,VALID,0,
2010-03-07, 00:27:04,VALID,1012.07,VALID,0,VALID,100.729,VALID,0,VALID,24.5125,VALID,328,VALID,0,
2010-03-07, 00:28:04,VALID,1012.07,VALID,0,VALID,100.736,VALID,0,VALID,24.5125,VALID,328,VALID,0,
2010-03-07, 00:29:04,VALID,1012.04,VALID,0,VALID,100.744,VALID,0.105969,VALID,24.5125,VALID,328,VALID,0,
2010-03-07, 00:30:04,VALID,1012.03,VALID,0,VALID,100.729,VALID,0,VALID,24.532,VALID,328,VALID,0,
2010-03-07, 00:31:04,VALID,1012.05,VALID,0,VALID,100.721,VALID,0,VALID,24.5125,VALID,328,VALID,0,
2010-03-07, 00:32:04,VALID,1012.04,VALID,0,VALID,100.736,VALID,0,VALID,24.5106,VALID,328,VALID,0,
2010-03-07, 00:33:04,VALID,1012.06,VALID,0,VALID,100.69,VALID,0,VALID,24.532,VALID,328,VALID,0,
2010-03-07, 00:34:04,VALID,1012.02,VALID,0,VALID,100.69,VALID,0,VALID,24.5515,VALID,328,VALID,0,
2010-03-07, 00:35:04,VALID,1012.04,VALID,0,VALID,100.721,VALID,0,VALID,24.5301,VALID,328,VALID,0,
2010-03-07, 00:36:04,VALID,1012.01,VALID,0,VALID,100.706,VALID,0,VALID,24.5515,VALID,328,VALID,0,
2010-03-07, 00:37:04,VALID,1011.98,VALID,0,VALID,100.698,VALID,0,VALID,24.5515,VALID,328,VALID,0,
2010-03-07, 00:38:04,VALID,1011.96,VALID,0,VALID,100.744,VALID,0,VALID,24.571,VALID,328,VALID,0,
2010-03-07, 00:39:04,VALID,1011.92,VALID,0,VALID,100.713,VALID,0,VALID,24.5496,VALID,328,VALID,0,
2010-03-07, 00:40:04,VALID,1011.89,VALID,0,VALID,100.729,VALID,0,VALID,24.571,VALID,328,VALID,0,
2010-03-07, 00:41:04,VALID,1011.85,VALID,0,VALID,100.744,VALID,0,VALID,24.571,VALID,328,VALID,0,
2010-03-07, 00:42:04,VALID,1011.84,VALID,0,VALID,100.751,VALID,0,VALID,24.5496,VALID,328,VALID,0,
2010-03-07, 00:43:04,VALID,1011.81,VALID,0,VALID,100.736,VALID,0,VALID,24.5496,VALID,328,VALID,0,
2010-03-07, 00:44:04,VALID,1011.81,VALID,0,VALID,100.759,VALID,0,VALID,24.5496,VALID,328,VALID,0,
2010-03-07, 00:45:04,VALID,1011.81,VALID,0,VALID,100.759,VALID,0,VALID,24.571,VALID,328,VALID,0,
2010-03-07, 00:46:04,VALID,1011.82,VALID,0,VALID,100.767,VALID,0.105969,VALID,24.532,VALID,328,VALID,0,
2010-03-07, 00:47:04,VALID,1011.82,VALID,0,VALID,100.767,VALID,0,VALID,24.532,VALID,328,VALID,0,
2010-03-07, 00:48:04,VALID,1011.84,VALID,0,VALID,100.736,VALID,0.105969,VALID,24.5106,VALID,328,VALID,0,
2010-03-07, 00:49:04,VALID,1011.84,VALID,0,VALID,100.744,VALID,0.105969,VALID,24.5106,VALID,328,VALID,0,
2010-03-07, 00:50:04,VALID,1011.86,VALID,0,VALID,100.744,VALID,0,VALID,24.532,VALID,328,VALID,0,
2010-03-07, 00:51:04,VALID,1011.85,VALID,0,VALID,100.744,VALID,0,VALID,24.5106,VALID,328,VALID,0,
2010-03-07, 00:52:04,VALID,1011.84,VALID,0,VALID,100.744,VALID,0,VALID,24.532,VALID,328,VALID,0,
2010-03-07, 00:53:04,VALID,1011.86,VALID,0,VALID,100.805,VALID,0,VALID,24.532,VALID,328,VALID,0,
2010-03-07, 00:54:04,VALID,1011.85,VALID,0,VALID,100.797,VALID,0.105969,VALID,24.5301,VALID,328,VALID,0,
2010-03-07, 00:55:04,VALID,1011.83,VALID,0,VALID,100.82,VALID,0,VALID,24.532,VALID,328,VALID,0,
2010-03-07, 00:56:04,VALID,1011.82,VALID,0,VALID,100.805,VALID,0.105969,VALID,24.5106,VALID,328,VALID,0,
2010-03-07, 00:57:04,VALID,1011.79,VALID,0,VALID,100.774,VALID,0,VALID,24.532,VALID,328,VALID,0,
2010-03-07, 00:58:04,VALID,1011.75,VALID,0,VALID,100.79,VALID,0,VALID,24.493,VALID,328,VALID,0,
2010-03-07, 00:59:04,VALID,1011.7,VALID,0,VALID,100.744,VALID,0.105969,VALID,24.493,VALID,328,VALID,0,
2010-03-07, 01:00:04,VALID,1011.69,VALID,0,VALID,100.767,VALID,0.105969,VALID,24.4911,VALID,328,VALID,0,
2010-03-07, 01:01:04,VALID,1011.68,VALID,0,VALID,100.759,VALID,0,VALID,24.532,VALID,328,VALID,0,
2010-03-07, 01:02:04,VALID,1011.68,VALID,0,VALID,100.767,VALID,0,VALID,24.5515,VALID,328,VALID,0.0398437,
2010-03-07, 01:03:04,VALID,1011.67,VALID,0,VALID,100.812,VALID,0.105969,VALID,24.5496,VALID,328,VALID,0,
2010-03-07, 01:04:04,VALID,1011.66,VALID,0,VALID,100.797,VALID,0.105969,VALID,24.571,VALID,328,VALID,0,
2010-03-07, 01:05:04,VALID,1011.67,VALID,0,VALID,100.79,VALID,0.105969,VALID,24.5905,VALID,328,VALID,0,
2010-03-07, 01:06:04,VALID,1011.67,VALID,0,VALID,100.828,VALID,0,VALID,24.5691,VALID,328,VALID,0,
2010-03-07, 01:07:04,VALID,1011.64,VALID,0,VALID,100.82,VALID,0,VALID,24.571,VALID,328,VALID,0,
2010-03-07, 01:08:04,VALID,1011.65,VALID,0,VALID,100.828,VALID,0,VALID,24.5301,VALID,328,VALID,0,
2010-03-07, 01:09:04,VALID,1011.62,VALID,0,VALID,100.797,VALID,0,VALID,24.4911,VALID,328,VALID,0.224219,
2010-03-07, 01:10:04,VALID,1011.58,VALID,0,VALID,100.767,VALID,0,VALID,24.4522,VALID,328,VALID,0,
2010-03-07, 01:11:04,VALID,1011.54,VALID,0,VALID,100.774,VALID,0,VALID,24.4735,VALID,328,VALID,0,
2010-03-07, 01:12:04,VALID,1011.54,VALID,0,VALID,100.736,VALID,0,VALID,24.4327,VALID,328,VALID,0,
2010-03-07, 01:13:04,VALID,1011.51,VALID,0,VALID,100.729,VALID,0,VALID,24.4327,VALID,328,VALID,0,
2010-03-07, 01:14:04,VALID,1011.53,VALID,0,VALID,100.751,VALID,0,VALID,24.4345,VALID,328,VALID,0,
2010-03-07, 01:15:04,VALID,1011.47,VALID,0,VALID,100.767,VALID,0,VALID,24.4345,VALID,328,VALID,0,
2010-03-07, 01:16:04,VALID,1011.48,VALID,0,VALID,100.774,VALID,0,VALID,24.454,VALID,328,VALID,0,
2010-03-07, 01:17:04,VALID,1011.5,VALID,0,VALID,100.782,VALID,0,VALID,24.454,VALID,328,VALID,0,
2010-03-07, 01:18:04,VALID,1011.52,VALID,0,VALID,100.797,VALID,0.105969,VALID,24.4735,VALID,328,VALID,0,
2010-03-07, 01:19:04,VALID,1011.51,VALID,0,VALID,100.812,VALID,0,VALID,24.493,VALID,328,VALID,0,
2010-03-07, 01:20:04,VALID,1011.52,VALID,0,VALID,100.828,VALID,0,VALID,24.4735,VALID,328,VALID,0,
2010-03-07, 01:21:04,VALID,1011.51,VALID,0,VALID,100.82,VALID,0.105969,VALID,24.4735,VALID,328,VALID,0,
2010-03-07, 01:22:04,VALID,1011.5,VALID,0,VALID,100.835,VALID,0,VALID,24.4735,VALID,328,VALID,0,
2010-03-07, 01:23:04,VALID,1011.49,VALID,0,VALID,100.866,VALID,0,VALID,24.493,VALID,328,VALID,0,
2010-03-07, 01:24:04,VALID,1011.45,VALID,0,VALID,100.858,VALID,0,VALID,24.493,VALID,328,VALID,0,
2010-03-07, 01:25:04,VALID,1011.42,VALID,0,VALID,100.873,VALID,0,VALID,24.4911,VALID,328,VALID,0,
2010-03-07, 01:26:04,VALID,1011.39,VALID,0,VALID,100.881,VALID,0,VALID,24.493,VALID,328,VALID,0,
2010-03-07, 01:27:04,VALID,1011.41,VALID,0,VALID,100.896,VALID,0,VALID,24.5125,VALID,328,VALID,0,
2010-03-07, 01:28:04,VALID,1011.37,VALID,0,VALID,100.919,VALID,0,VALID,24.493,VALID,328,VALID,0,
2010-03-07, 01:29:04,VALID,1011.38,VALID,0,VALID,100.904,VALID,0,VALID,24.493,VALID,328,VALID,0,
2010-03-07, 01:30:04,VALID,1011.38,VALID,0,VALID,100.912,VALID,0,VALID,24.4735,VALID,328,VALID,0.0324219,
2010-03-07, 01:31:04,VALID,1011.35,VALID,0,VALID,100.957,VALID,0,VALID,24.454,VALID,328,VALID,0.271875,
2010-03-07, 01:32:04,VALID,1011.35,VALID,0,VALID,100.934,VALID,0,VALID,24.4327,VALID,328,VALID,0.123438,
2010-03-07, 01:33:04,VALID,1011.31,VALID,0,VALID,100.942,VALID,0.105969,VALID,24.4345,VALID,328,VALID,0,
2010-03-07, 01:34:04,VALID,1011.28,VALID,0,VALID,100.95,VALID,0.105969,VALID,24.3937,VALID,328,VALID,0,
2010-03-07, 01:35:04,VALID,1011.28,VALID,0,VALID,100.927,VALID,0,VALID,24.3761,VALID,328,VALID,0.0078125,
2010-03-07, 01:36:04,VALID,1011.27,VALID,0,VALID,100.927,VALID,0,VALID,24.3352,VALID,328,VALID,0,
2010-03-07, 01:37:04,VALID,1011.26,VALID,0,VALID,100.934,VALID,0,VALID,24.2963,VALID,328,VALID,0,
2010-03-07, 01:38:04,VALID,1011.24,VALID,0,VALID,100.912,VALID,0,VALID,24.2981,VALID,328,VALID,0,
2010-03-07, 01:39:04,VALID,1011.23,VALID,0,VALID,100.942,VALID,0.105969,VALID,24.2573,VALID,328,VALID,0.05625,
2010-03-07, 01:40:04,VALID,1011.2,VALID,0,VALID,100.934,VALID,0,VALID,24.2591,VALID,328,VALID,0.157813,
2010-03-07, 01:41:04,VALID,1011.2,VALID,0,VALID,100.942,VALID,0,VALID,24.2396,VALID,328,VALID,0.280078,
2010-03-07, 01:42:04,VALID,1011.18,VALID,0,VALID,100.934,VALID,0.105969,VALID,24.1988,VALID,328,VALID,0.130078,
2010-03-07, 01:43:04,VALID,1011.18,VALID,0,VALID,100.942,VALID,0,VALID,24.1812,VALID,328,VALID,0,
2010-03-07, 01:44:04,VALID,1011.14,VALID,0,VALID,100.965,VALID,0,VALID,24.1599,VALID,328,VALID,0.176953,
2010-03-07, 01:45:04,VALID,1011.14,VALID,0,VALID,100.957,VALID,0,VALID,24.1617,VALID,328,VALID,0.0804688,
2010-03-07, 01:46:04,VALID,1011.14,VALID,0,VALID,100.965,VALID,0,VALID,24.1227,VALID,328,VALID,0,
2010-03-07, 01:47:04,VALID,1011.09,VALID,0,VALID,100.957,VALID,0,VALID,24.1014,VALID,328,VALID,0,
2010-03-07, 01:48:04,VALID,1011.07,VALID,0,VALID,100.973,VALID,0,VALID,24.1032,VALID,328,VALID,0,
2010-03-07, 01:49:04,VALID,1011.05,VALID,0,VALID,100.957,VALID,0,VALID,24.0837,VALID,328,VALID,0.227734,
2010-03-07, 01:50:04,VALID,1011.01,VALID,0,VALID,100.957,VALID,0,VALID,24.0819,VALID,328,VALID,0.373828,
2010-03-07, 01:51:04,VALID,1011,VALID,0,VALID,100.98,VALID,0.105969,VALID,24.0819,VALID,328,VALID,0,
2010-03-07, 01:52:04,VALID,1010.96,VALID,0,VALID,100.98,VALID,0,VALID,24.0819,VALID,328,VALID,0,
2010-03-07, 01:53:04,VALID,1010.98,VALID,0,VALID,101.011,VALID,0.105969,VALID,24.0837,VALID,328,VALID,0,
2010-03-07, 01:54:04,VALID,1010.95,VALID,0,VALID,100.98,VALID,0,VALID,24.0837,VALID,328,VALID,0,
2010-03-07, 01:55:04,VALID,1010.97,VALID,0,VALID,101.003,VALID,0,VALID,24.0643,VALID,328,VALID,0,
2010-03-07, 01:56:04,VALID,1010.95,VALID,0,VALID,100.988,VALID,0,VALID,24.0235,VALID,328,VALID,0,
2010-03-07, 01:57:04,VALID,1010.92,VALID,0,VALID,100.995,VALID,0.105969,VALID,24.0643,VALID,328,VALID,0,
2010-03-07, 01:58:04,VALID,1010.98,VALID,0,VALID,101.011,VALID,0,VALID,24.0448,VALID,328,VALID,0,
2010-03-07, 01:59:04,VALID,1010.97,VALID,0,VALID,100.98,VALID,0,VALID,24.0448,VALID,328,VALID,0,
2010-03-07, 02:00:04,VALID,1010.97,VALID,0,VALID,101.003,VALID,0,VALID,24.0253,VALID,328,VALID,0,
2010-03-07, 02:01:04,VALID,1010.94,VALID,0,VALID,100.995,VALID,0,VALID,24.0253,VALID,328,VALID,0,
2010-03-07, 02:02:04,VALID,1010.92,VALID,0,VALID,101.003,VALID,0,VALID,24.0253,VALID,328,VALID,0,
2010-03-07, 02:03:04,VALID,1010.9,VALID,0,VALID,101.003,VALID,0,VALID,24.0253,VALID,328,VALID,0,
2010-03-07, 02:04:04,VALID,1010.89,VALID,0,VALID,101.003,VALID,0,VALID,24.0253,VALID,328,VALID,0,
2010-03-07, 02:05:04,VALID,1010.89,VALID,0,VALID,101.003,VALID,0.105969,VALID,24.0448,VALID,328,VALID,0,
2010-03-07, 02:06:04,VALID,1010.86,VALID,0,VALID,101.041,VALID,0,VALID,24.004,VALID,328,VALID,0,
2010-03-07, 02:07:04,VALID,1010.89,VALID,0,VALID,101.041,VALID,0,VALID,24.0058,VALID,328,VALID,0,
2010-03-07, 02:08:04,VALID,1010.91,VALID,0,VALID,101.034,VALID,0,VALID,24.0058,VALID,328,VALID,0,
2010-03-07, 02:09:04,VALID,1010.94,VALID,0,VALID,101.056,VALID,0,VALID,23.9863,VALID,328,VALID,0.257422,
2010-03-07, 02:10:04,VALID,1010.98,VALID,0,VALID,101.034,VALID,0,VALID,23.9863,VALID,328,VALID,0.334766,
2010-03-07, 02:11:04,VALID,1010.99,VALID,0,VALID,101.034,VALID,0,VALID,23.9863,VALID,328,VALID,0.391016,
2010-03-07, 02:12:04,VALID,1010.97,VALID,0,VALID,101.034,VALID,0,VALID,24.0058,VALID,328,VALID,0.287109,
2010-03-07, 02:13:04,VALID,1011.02,VALID,0,VALID,101.034,VALID,0,VALID,23.9845,VALID,328,VALID,0.177344,
2010-03-07, 02:14:04,VALID,1011.02,VALID,0,VALID,101.049,VALID,0,VALID,23.9863,VALID,328,VALID,0.189453,
2010-03-07, 02:15:04,VALID,1011.02,VALID,0,VALID,101.049,VALID,0,VALID,23.9668,VALID,328,VALID,0,
2010-03-07, 02:16:04,VALID,1011.02,VALID,0,VALID,101.072,VALID,0,VALID,23.9668,VALID,328,VALID,0,
2010-03-07, 02:17:04,VALID,1011.03,VALID,0,VALID,101.056,VALID,0,VALID,23.9668,VALID,328,VALID,0,
2010-03-07, 02:18:04,VALID,1011.01,VALID,0,VALID,101.087,VALID,0,VALID,23.9278,VALID,328,VALID,0,
2010-03-07, 02:19:04,VALID,1011.06,VALID,0,VALID,101.064,VALID,0,VALID,23.9473,VALID,328,VALID,0,
2010-03-07, 02:20:04,VALID,1011.04,VALID,0,VALID,101.056,VALID,0,VALID,23.9278,VALID,328,VALID,0,
2010-03-07, 02:21:04,VALID,1011.03,VALID,0,VALID,101.079,VALID,0,VALID,23.9084,VALID,328,VALID,0,
2010-03-07, 02:22:04,VALID,1011.03,VALID,0,VALID,101.095,VALID,0,VALID,23.9084,VALID,10,VALID,0.2,
2010-03-07, 02:23:04,VALID,1011.05,VALID,0,VALID,101.056,VALID,0,VALID,23.9278,VALID,43,VALID,0.346484,
2010-03-07, 02:24:04,VALID,1011.04,VALID,0,VALID,101.056,VALID,0,VALID,23.9278,VALID,55,VALID,0.510547,
2010-03-07, 02:25:04,VALID,1011.07,VALID,0,VALID,101.056,VALID,0,VALID,23.9065,VALID,87,VALID,0.534766,
2010-03-07, 02:26:04,VALID,1011.07,VALID,0,VALID,101.095,VALID,0,VALID,23.9473,VALID,90,VALID,0.520312,
2010-03-07, 02:27:04,VALID,1011.06,VALID,0,VALID,101.087,VALID,0,VALID,23.9473,VALID,89,VALID,0.280859,
2010-03-07, 02:28:04,VALID,1011.06,VALID,0,VALID,101.064,VALID,0,VALID,23.9473,VALID,89,VALID,0.347656,
2010-03-07, 02:29:04,VALID,1011.06,VALID,0,VALID,101.072,VALID,0,VALID,23.9668,VALID,89,VALID,0.362891,
2010-03-07, 02:30:04,VALID,1011.07,VALID,0,VALID,101.064,VALID,0,VALID,23.9668,VALID,89,VALID,0,
2010-03-07, 02:31:04,VALID,1011.04,VALID,0,VALID,101.079,VALID,0,VALID,24.0058,VALID,89,VALID,0,
2010-03-07, 02:32:04,VALID,1011.06,VALID,0,VALID,101.064,VALID,0,VALID,24.0058,VALID,89,VALID,0,
2010-03-07, 02:33:04,VALID,1011.07,VALID,0,VALID,101.041,VALID,0,VALID,24.0253,VALID,89,VALID,0.071875,
2010-03-07, 02:34:04,VALID,1011.08,VALID,0,VALID,101.056,VALID,0,VALID,24.0253,VALID,89,VALID,0,
2010-03-07, 02:35:04,VALID,1011.08,VALID,0,VALID,101.064,VALID,0,VALID,24.0448,VALID,89,VALID,0,
2010-03-07, 02:36:04,VALID,1011.06,VALID,0,VALID,101.041,VALID,0,VALID,24.0448,VALID,89,VALID,0,
2010-03-07, 02:37:04,VALID,1011.02,VALID,0,VALID,101.049,VALID,0.105969,VALID,24.0643,VALID,89,VALID,0,
2010-03-07, 02:38:04,VALID,1011.02,VALID,0,VALID,101.026,VALID,0,VALID,24.0624,VALID,89,VALID,0,
2010-03-07, 02:39:04,VALID,1010.98,VALID,0,VALID,101.026,VALID,0,VALID,24.0837,VALID,89,VALID,0,
2010-03-07, 02:40:04,VALID,1010.98,VALID,0,VALID,101.026,VALID,0,VALID,24.0837,VALID,89,VALID,0,
2010-03-07, 02:41:04,VALID,1010.92,VALID,0,VALID,101.018,VALID,0,VALID,24.1032,VALID,89,VALID,0,
2010-03-07, 02:42:04,VALID,1010.87,VALID,0,VALID,101.056,VALID,0.105969,VALID,24.1032,VALID,89,VALID,0,
2010-03-07, 02:43:04,VALID,1010.84,VALID,0,VALID,101.064,VALID,0.105969,VALID,24.0624,VALID,89,VALID,0,
2010-03-07, 02:44:04,VALID,1010.84,VALID,0,VALID,101.064,VALID,0,VALID,24.0624,VALID,70,VALID,0,
2010-03-07, 02:45:04,VALID,1010.83,VALID,0,VALID,101.049,VALID,0.105969,VALID,24.0837,VALID,353,VALID,0.332031,
2010-03-07, 02:46:04,VALID,1010.82,VALID,0,VALID,101.064,VALID,0,VALID,24.0643,VALID,353,VALID,0.206641,
2010-03-07, 02:47:04,VALID,1010.81,VALID,0,VALID,101.072,VALID,0,VALID,24.0448,VALID,353,VALID,0.290625,
2010-03-07, 02:48:04,VALID,1010.81,VALID,0,VALID,101.064,VALID,0,VALID,24.0253,VALID,353,VALID,0.125391,
2010-03-07, 02:49:04,VALID,1010.8,VALID,0,VALID,101.056,VALID,0,VALID,24.0058,VALID,353,VALID,0,
2010-03-07, 02:50:04,VALID,1010.82,VALID,0,VALID,101.041,VALID,0,VALID,23.9863,VALID,353,VALID,0,
2010-03-07, 02:51:04,VALID,1010.81,VALID,0,VALID,101.041,VALID,0,VALID,23.9668,VALID,353,VALID,0,
2010-03-07, 02:52:04,VALID,1010.82,VALID,0,VALID,101.034,VALID,0,VALID,23.926,VALID,353,VALID,0,
2010-03-07, 02:53:04,VALID,1010.77,VALID,0,VALID,101.041,VALID,0,VALID,23.9473,VALID,353,VALID,0,
2010-03-07, 02:54:04,VALID,1010.79,VALID,0,VALID,101.011,VALID,0.105969,VALID,23.926,VALID,353,VALID,0,
2010-03-07, 02:55:04,VALID,1010.8,VALID,0,VALID,101.026,VALID,0,VALID,23.9278,VALID,353,VALID,0,
2010-03-07, 02:56:04,VALID,1010.77,VALID,0,VALID,101.018,VALID,0,VALID,23.9473,VALID,353,VALID,0,
2010-03-07, 02:57:04,VALID,1010.8,VALID,0,VALID,101.041,VALID,0,VALID,23.9278,VALID,353,VALID,0,
2010-03-07, 02:58:04,VALID,1010.79,VALID,0,VALID,101.034,VALID,0,VALID,23.9065,VALID,353,VALID,0,
2010-03-07, 02:59:04,VALID,1010.79,VALID,0,VALID,101.041,VALID,0.105969,VALID,23.9084,VALID,353,VALID,0,
2010-03-07, 03:00:04,VALID,1010.78,VALID,0,VALID,101.034,VALID,0.105969,VALID,23.9084,VALID,353,VALID,0,
2010-03-07, 03:01:04,VALID,1010.78,VALID,0,VALID,101.056,VALID,0,VALID,23.9084,VALID,353,VALID,0,
2010-03-07, 03:02:04,VALID,1010.72,VALID,0,VALID,101.056,VALID,0,VALID,23.8889,VALID,353,VALID,0,
2010-03-07, 03:03:04,VALID,1010.73,VALID,0,VALID,101.072,VALID,0.105969,VALID,23.8889,VALID,353,VALID,0,
2010-03-07, 03:04:04,VALID,1010.72,VALID,0,VALID,101.11,VALID,0,VALID,23.9084,VALID,353,VALID,0,
2010-03-07, 03:05:04,VALID,1010.75,VALID,0,VALID,101.072,VALID,0.105969,VALID,23.8676,VALID,353,VALID,0,
2010-03-07, 03:06:04,VALID,1010.72,VALID,0,VALID,101.095,VALID,0,VALID,23.8676,VALID,353,VALID,0,
2010-03-07, 03:07:04,VALID,1010.76,VALID,0,VALID,101.11,VALID,0,VALID,23.8694,VALID,353,VALID,0,
2010-03-07, 03:08:04,VALID,1010.73,VALID,0,VALID,101.087,VALID,0.105969,VALID,23.8481,VALID,353,VALID,0,
2010-03-07, 03:09:04,VALID,1010.78,VALID,0,VALID,101.095,VALID,0,VALID,23.8694,VALID,353,VALID,0,
2010-03-07, 03:10:04,VALID,1010.77,VALID,0,VALID,101.079,VALID,0,VALID,23.8481,VALID,353,VALID,0,
2010-03-07, 03:11:04,VALID,1010.79,VALID,0,VALID,101.087,VALID,0,VALID,23.8286,VALID,353,VALID,0,
2010-03-07, 03:12:04,VALID,1010.81,VALID,0,VALID,101.087,VALID,0,VALID,23.8286,VALID,353,VALID,0,
2010-03-07, 03:13:04,VALID,1010.81,VALID,0,VALID,101.087,VALID,0,VALID,23.8499,VALID,353,VALID,0.227734,
2010-03-07, 03:14:04,VALID,1010.87,VALID,0,VALID,101.095,VALID,0,VALID,23.8304,VALID,353,VALID,0.386719,
2010-03-07, 03:15:04,VALID,1010.85,VALID,0,VALID,101.087,VALID,0,VALID,23.8304,VALID,353,VALID,0.350781,
2010-03-07, 03:16:04,VALID,1010.87,VALID,0,VALID,101.102,VALID,0,VALID,23.8109,VALID,353,VALID,0.261328,
2010-03-07, 03:17:04,VALID,1010.87,VALID,0,VALID,101.095,VALID,0,VALID,23.8109,VALID,353,VALID,0.125781,
2010-03-07, 03:18:04,VALID,1010.85,VALID,0,VALID,101.11,VALID,0,VALID,23.8109,VALID,353,VALID,0,
2010-03-07, 03:19:04,VALID,1010.83,VALID,0,VALID,101.133,VALID,0,VALID,23.7914,VALID,353,VALID,0,
2010-03-07, 03:20:04,VALID,1010.86,VALID,0,VALID,101.11,VALID,0,VALID,23.7701,VALID,353,VALID,0,
2010-03-07, 03:21:04,VALID,1010.87,VALID,0,VALID,101.11,VALID,0.105969,VALID,23.7914,VALID,353,VALID,0,
2010-03-07, 03:22:04,VALID,1010.89,VALID,0,VALID,101.102,VALID,0,VALID,23.7701,VALID,353,VALID,0,
2010-03-07, 03:23:04,VALID,1010.9,VALID,0,VALID,101.102,VALID,0.105969,VALID,23.7914,VALID,353,VALID,0,
2010-03-07, 03:24:04,VALID,1010.92,VALID,0,VALID,101.087,VALID,0.105969,VALID,23.7701,VALID,353,VALID,0,
2010-03-07, 03:25:04,VALID,1010.95,VALID,0,VALID,101.095,VALID,0,VALID,23.7914,VALID,353,VALID,0.335938,
2010-03-07, 03:26:04,VALID,1010.94,VALID,0,VALID,101.125,VALID,0.105969,VALID,23.7914,VALID,353,VALID,0.273438,
2010-03-07, 03:27:04,VALID,1010.9,VALID,0,VALID,101.11,VALID,0.105969,VALID,23.772,VALID,353,VALID,0.065625,
2010-03-07, 03:28:04,VALID,1010.91,VALID,0,VALID,101.133,VALID,0,VALID,23.772,VALID,353,VALID,0.251172,
2010-03-07, 03:29:04,VALID,1010.94,VALID,0,VALID,101.133,VALID,0,VALID,23.7507,VALID,353,VALID,0,
2010-03-07, 03:30:04,VALID,1010.94,VALID,0,VALID,101.163,VALID,0.105969,VALID,23.7312,VALID,353,VALID,0,
2010-03-07, 03:31:04,VALID,1010.93,VALID,0,VALID,101.133,VALID,0.105969,VALID,23.7312,VALID,353,VALID,0,
2010-03-07, 03:32:04,VALID,1010.94,VALID,0,VALID,101.117,VALID,0,VALID,23.7312,VALID,353,VALID,0,
2010-03-07, 03:33:04,VALID,1010.9,VALID,0,VALID,101.133,VALID,0,VALID,23.7117,VALID,353,VALID,0,
2010-03-07, 03:34:04,VALID,1010.92,VALID,0,VALID,101.14,VALID,0,VALID,23.7135,VALID,353,VALID,0,
2010-03-07, 03:35:04,VALID,1010.9,VALID,0,VALID,101.148,VALID,0.105969,VALID,23.6922,VALID,353,VALID,0,
2010-03-07, 03:36:04,VALID,1010.91,VALID,0,VALID,101.163,VALID,0.105969,VALID,23.6922,VALID,353,VALID,0,
2010-03-07, 03:37:04,VALID,1010.91,VALID,0,VALID,101.163,VALID,0.105969,VALID,23.7135,VALID,353,VALID,0,
2010-03-07, 03:38:04,VALID,1010.92,VALID,0,VALID,101.148,VALID,0,VALID,23.7135,VALID,353,VALID,0,
2010-03-07, 03:39:04,VALID,1010.92,VALID,0,VALID,101.117,VALID,0,VALID,23.694,VALID,353,VALID,0,
2010-03-07, 03:40:04,VALID,1010.89,VALID,0,VALID,101.133,VALID,0,VALID,23.694,VALID,353,VALID,0,
2010-03-07, 03:41:04,VALID,1010.9,VALID,0,VALID,101.14,VALID,0,VALID,23.6922,VALID,353,VALID,0,
2010-03-07, 03:42:04,VALID,1010.88,VALID,0,VALID,101.14,VALID,0,VALID,23.6922,VALID,353,VALID,0,
2010-03-07, 03:43:04,VALID,1010.87,VALID,0,VALID,101.148,VALID,0,VALID,23.7135,VALID,353,VALID,0,
2010-03-07, 03:44:04,VALID,1010.85,VALID,0,VALID,101.156,VALID,0.105969,VALID,23.6922,VALID,353,VALID,0,
2010-03-07, 03:45:04,VALID,1010.84,VALID,0,VALID,101.148,VALID,0.105969,VALID,23.6922,VALID,353,VALID,0,
2010-03-07, 03:46:04,VALID,1010.8,VALID,0,VALID,101.171,VALID,0,VALID,23.7135,VALID,353,VALID,0,
2010-03-07, 03:47:04,VALID,1010.79,VALID,0,VALID,101.156,VALID,0.105969,VALID,23.6922,VALID,353,VALID,0,
2010-03-07, 03:48:04,VALID,1010.72,VALID,0,VALID,101.156,VALID,0.105969,VALID,23.6922,VALID,353,VALID,0,
2010-03-07, 03:49:04,VALID,1010.73,VALID,0,VALID,101.14,VALID,0,VALID,23.733,VALID,353,VALID,0,
2010-03-07, 03:50:04,VALID,1010.72,VALID,0,VALID,101.14,VALID,0.105969,VALID,23.7135,VALID,353,VALID,0,
2010-03-07, 03:51:04,VALID,1010.72,VALID,0,VALID,101.14,VALID,0,VALID,23.7135,VALID,353,VALID,0,
2010-03-07, 03:52:04,VALID,1010.72,VALID,0,VALID,101.14,VALID,0,VALID,23.7117,VALID,353,VALID,0,
2010-03-07, 03:53:04,VALID,1010.72,VALID,0,VALID,101.148,VALID,0,VALID,23.6922,VALID,353,VALID,0,
2010-03-07, 03:54:04,VALID,1010.72,VALID,0,VALID,101.156,VALID,0.105969,VALID,23.7117,VALID,353,VALID,0,